CW9854 Weather Reports


Display with metric or nautical units.
time (UTC)temp
F
wind
direction
speed
MPH
gust
MPH
rain 1hr
in
rain 24hr
in
rain mn
in
humidity
%
barometer
mb
20260903072003 69 176 0.0 2.0 0.00 1.16 0.00 95 1012.7
20260903071718 68 187 0.0 2.0 0.00 1.16 0.00 95 1012.7
20260903071003 69 197 0.0 4.0 0.00 1.16 0.00 95 1012.6
20260903070503 69 192 0.0 4.0 0.00 1.16 0.00 95 1012.6
20260903070217 69 190 0.0 4.0 0.00 1.16 0.00 95 1012.6
20260903065503 69 160 0.0 5.0 0.00 1.16 0.00 95 1012.7
20260903065003 69 189 0.0 4.0 0.00 1.16 0.00 95 1012.9
20260903064718 69 201 0.0 4.0 0.00 1.16 0.00 95 1012.9
20260903064003 69 215 0.0 2.0 0.00 1.16 0.00 95 1013.1
20260903063503 69 215 0.0 2.0 0.00 1.16 0.00 95 1012.9
20260903063217 69 212 0.0 2.0 0.00 1.16 0.00 95 1013.0
20260903062503 69 201 0.0 3.0 0.00 1.16 0.00 95 1013.0
20260903062003 69 194 0.0 3.0 0.00 1.16 0.00 95 1013.2
20260903061503 69 205 0.0 2.0 0.00 1.16 0.00 95 1013.0
20260903061003 69 217 0.0 4.0 0.00 1.16 0.00 95 1013.0
20260903060504 69 211 0.0 4.0 0.00 1.16 0.00 95 1013.0
20260903060003 69 218 0.0 4.0 0.00 1.16 0.00 95 1012.7
20260903055503 69 203 1.0 4.0 0.00 1.16 0.00 95 1012.7
20260903055003 69 195 1.0 4.0 0.00 1.16 0.00 95 1012.7
20260903054717 69 192 1.0 4.0 0.00 1.16 0.00 95 1012.6
20260903054003 69 172 1.0 2.0 0.00 1.16 0.00 95 1012.7
20260903053717 69 172 0.0 1.0 0.00 1.16 0.00 95 1012.8
20260903053003 69 214 0.0 4.0 0.00 1.16 0.00 95 1012.8
20260903052503 69 222 0.0 3.0 0.00 1.16 0.00 95 1012.7
20260903052003 69 200 1.0 5.0 0.00 1.16 0.00 95 1012.7
20260903051503 69 203 1.0 5.0 0.00 1.16 0.00 95 1012.9
20260903051003 69 209 1.0 4.0 0.00 1.16 0.00 95 1012.9
20260903050504 69 198 1.0 3.0 0.00 1.16 0.00 95 1012.8
20260903050003 69 206 2.0 7.0 0.00 1.16 0.00 95 1012.9
20260903045717 69 206 2.0 7.0 0.00 1.16 0.00 95 1012.8
20260903045003 68 213 1.0 6.0 0.00 1.16 0.00 95 1012.6
20260903044503 68 212 1.0 4.0 0.00 1.16 0.00 95 1012.7
20260903044003 68 217 1.0 4.0 0.00 1.16 0.00 95 1012.6
20260903043503 68 232 0.0 2.0 0.00 1.16 0.00 95 1012.6
20260903043003 68 234 0.0 2.0 0.00 1.16 0.00 95 1012.2
20260903042503 69 235 0.0 2.0 0.00 1.16 0.00 95 1012.2
20260903042003 69 240 0.0 3.0 0.00 1.16 0.00 95 1012.4
20260903041717 69 242 0.0 3.0 0.00 1.16 0.00 95 1012.2
20260903041003 69 314 0.0 1.0 0.00 1.16 0.00 95 1012.1
20260903040503 69 260 0.0 1.0 0.00 1.16 0.00 95 1012.1
20260903040218 69 243 0.0 1.0 0.00 1.16 0.00 95 1012.1
20260903035503 69 237 0.0 2.0 0.00 1.16 1.16 95 1012.0
20260903035003 69 195 1.0 3.0 0.00 1.16 1.16 95 1012.0
20260903034717 69 192 1.0 3.0 0.00 1.16 1.16 95 1012.0
20260903034218 69 211 0.0 2.0 0.00 1.16 1.16 95 1012.2
20260903033717 69 233 0.0 1.0 0.00 1.16 1.16 95 1012.2
20260903033003 69 255 0.0 3.0 0.00 1.16 1.16 95 1012.3
20260903032503 69 282 0.0 3.0 0.00 1.16 1.16 95 1012.3
20260903032003 69 252 1.0 4.0 0.00 1.16 1.16 95 1012.3
20260903031503 69 226 1.0 4.0 0.00 1.16 1.16 95 1012.5
20260903031003 69 246 1.0 3.0 0.00 1.16 1.16 95 1012.7
20260903030503 69 261 1.0 2.0 0.00 1.16 1.16 95 1012.9
20260903030003 69 229 1.0 2.0 0.00 1.16 1.16 95 1013.0
20260903025503 69 224 0.0 2.0 0.00 1.16 1.16 95 1013.0
20260903025003 69 243 0.0 2.0 0.00 1.16 1.16 95 1013.0
20260903024503 69 274 0.0 2.0 0.00 1.16 1.16 95 1013.0
20260903024218 69 275 0.0 2.0 0.00 1.16 1.16 95 1013.1
20260903023503 69 272 1.0 3.0 0.03 1.16 1.16 95 1013.5
20260903023003 69 236 1.0 3.0 0.10 1.16 1.16 95 1013.5
20260903022503 69 239 1.0 2.0 0.20 1.16 1.16 95 1013.4
20260903022217 69 264 1.0 3.0 0.26 1.16 1.16 95 1013.5
20260903021503 69 224 1.0 4.0 0.26 1.16 1.16 95 1013.5
20260903021003 69 234 1.0 3.0 0.26 1.16 1.16 95 1013.5
20260903020503 69 270 1.0 3.0 0.26 1.16 1.16 95 1013.5
20260903020003 69 274 0.0 2.0 0.26 1.16 1.16 95 1013.5
20260903015503 69 244 0.0 3.0 0.26 1.16 1.16 94 1013.3
20260903015217 69 228 1.0 3.0 0.26 1.16 1.16 95 1013.5
20260903014503 69 191 1.0 4.0 0.26 1.16 1.16 95 1014.0
20260903014003 69 146 1.0 4.0 0.26 1.16 1.16 95 1014.1
20260903013718 70 93 1.0 3.0 0.25 1.15 1.15 95 1014.0
20260903013003 70 264 1.0 4.0 0.17 1.06 1.06 95 1014.3
20260903012503 69 282 1.0 4.0 0.07 0.96 0.96 95 1014.1
20260903012003 69 275 1.0 4.0 0.02 0.90 0.90 94 1012.9
20260903011503 69 293 0.0 2.0 0.02 0.90 0.90 94 1012.6
20260903011003 69 0 0.0 0.0 0.03 0.90 0.90 95 1012.9
20260903010503 70 0 0.0 0.0 0.04 0.90 0.90 95 1013.1
20260903010003 70 169 0.0 2.0 0.05 0.90 0.90 95 1013.2
20260903005503 70 169 0.0 2.0 0.06 0.90 0.90 95 1012.9
20260903005003 70 169 0.0 2.0 0.07 0.90 0.90 94 1012.2
20260903004503 70 169 0.0 2.0 0.08 0.90 0.90 94 1012.0
20260903004003 70 167 0.0 1.0 0.09 0.90 0.90 94 1012.2
20260903003503 70 166 0.0 1.0 0.10 0.90 0.90 94 1012.3
20260903003003 70 159 0.0 1.0 0.10 0.89 0.89 94 1012.4
20260903002503 70 159 0.0 1.0 0.11 0.89 0.89 94 1012.3
20260903002003 70 159 0.0 1.0 0.11 0.88 0.88 94 1012.4
20260903001503 70 159 0.0 1.0 0.14 0.88 0.88 94 1012.7
20260903001218 70 159 0.0 4.0 0.27 0.87 0.87 94 1012.9
20260903000503 70 69 1.0 4.0 0.33 0.86 0.86 94 1012.6
20260903000219 70 47 0.0 2.0 0.34 0.85 0.85 93 1012.1
20260902235503 70 31 1.0 3.0 0.35 0.84 0.84 93 1011.6
20260902235003 71 11 1.0 3.0 0.34 0.83 0.83 93 1011.7
20260902234717 71 21 1.0 4.0 0.34 0.83 0.83 92 1011.9
20260902234003 72 30 1.0 8.0 0.32 0.81 0.81 92 1012.7
20260902233503 72 7 1.0 8.0 0.31 0.80 0.80 92 1013.4
20260902233003 73 321 1.0 6.0 0.30 0.79 0.79 92 1013.6
20260902232503 73 43 1.0 6.0 0.29 0.78 0.78 91 1013.0
20260902232003 74 29 1.0 4.0 0.28 0.77 0.77 91 1012.8
20260902231503 75 53 1.0 5.0 0.25 0.74 0.74 90 1013.0
20260902231003 76 49 1.0 5.0 0.10 0.59 0.59 90 1012.9
20260902230717 77 23 0.0 2.0 0.06 0.55 0.56 90 1012.5
20260902230003 78 60 1.0 4.0 0.01 0.50 0.50 89 1012.4
20260902225503 78 54 1.0 6.0 0.00 0.49 0.49 88 1012.3
20260902225003 79 22 1.0 6.0 0.00 0.49 0.49 89 1012.4
20260902224503 79 273 1.0 3.0 0.00 0.49 0.49 89 1012.1
20260902224003 80 224 1.0 4.0 0.00 0.49 0.49 87 1011.6
20260902223503 80 210 1.0 4.0 0.00 0.49 0.49 88 1011.3
20260902223003 80 201 1.0 3.0 0.00 0.49 0.49 88 1011.0
20260902222503 80 203 1.0 4.0 0.00 0.49 0.49 88 1011.2
20260902222218 80 212 1.0 4.0 0.00 0.49 0.49 88 1011.2
20260902221503 81 228 0.0 1.0 0.00 0.49 0.49 87 1011.4
20260902221218 81 229 0.0 2.0 0.00 0.49 0.49 87 1011.6
20260902220503 81 227 0.0 3.0 0.00 0.49 0.49 87 1011.5
20260902220003 81 198 0.0 1.0 0.00 0.49 0.49 87 1011.3
20260902215503 81 198 0.0 1.0 0.00 0.49 0.49 87 1011.3
20260902215003 82 208 0.0 3.0 0.00 0.49 0.49 87 1011.0
20260902214716 82 212 1.0 5.0 0.00 0.49 0.49 87 1011.0
20260902214003 82 207 1.0 5.0 0.00 0.49 0.49 86 1011.0
20260902213503 81 213 1.0 4.0 0.00 0.49 0.49 86 1010.9
20260902213003 81 229 1.0 3.0 0.00 0.49 0.49 87 1011.2
20260902212503 81 226 1.0 3.0 0.00 0.49 0.49 87 1011.3
20260902212003 81 231 0.0 3.0 0.00 0.49 0.49 88 1011.7
20260902211503 80 212 1.0 6.0 0.00 0.49 0.49 88 1012.1
20260902211003 80 219 1.0 6.0 0.00 0.49 0.49 88 1012.0
20260902210503 80 238 0.0 4.0 0.00 0.49 0.49 88 1012.0
20260902210003 80 227 0.0 2.0 0.00 0.49 0.49 88 1012.0
20260902205718 80 234 0.0 3.0 0.00 0.49 0.49 88 1012.1
20260902205003 80 228 0.0 3.0 0.00 0.49 0.49 88 1012.3
20260902204503 80 203 0.0 3.0 0.00 0.49 0.49 87 1012.4
20260902204217 80 198 0.0 3.0 0.00 0.49 0.49 87 1012.4
20260902203503 80 201 0.0 2.0 0.00 0.49 0.49 86 1012.8
20260902203003 80 202 0.0 2.0 0.00 0.49 0.49 86 1012.9
20260902202718 81 223 0.0 3.0 0.00 0.49 0.49 85 1012.9
20260902202217 81 205 0.0 3.0 0.00 0.49 0.49 85 1012.9
20260902201503 82 182 1.0 3.0 0.00 0.49 0.49 83 1013.1
20260902201003 82 196 1.0 4.0 0.00 0.49 0.49 83 1013.1
20260902200503 83 192 1.0 5.0 0.00 0.49 0.49 82 1013.3
20260902200003 84 198 1.0 5.0 0.00 0.49 0.49 80 1013.7
20260902195503 84 195 2.0 4.0 0.00 0.49 0.49 81 1013.7
20260902195003 84 201 2.0 4.0 0.00 0.49 0.49 80 1013.7
20260902194504 85 212 1.0 4.0 0.00 0.49 0.49 80 1013.8
20260902194217 85 206 2.0 5.0 0.00 0.49 0.49 80 1013.8
20260902193503 85 209 2.0 6.0 0.00 0.49 0.49 77 1013.8
20260902193003 85 227 1.0 4.0 0.00 0.49 0.49 80 1013.8
20260902192503 84 236 1.0 4.0 0.00 0.49 0.49 79 1013.8
20260902192216 84 238 1.0 4.0 0.00 0.49 0.49 78 1013.8
20260902191503 84 201 1.0 5.0 0.00 0.49 0.49 80 1013.6
20260902191003 84 197 1.0 5.0 0.00 0.49 0.49 81 1013.7
20260902190718 84 193 1.0 6.0 0.00 0.49 0.49 79 1013.8
20260902190003 84 193 1.0 8.0 0.00 0.49 0.49 78 1013.8
20260902185718 84 202 1.0 8.0 0.00 0.49 0.49 82 1013.8
20260902185003 84 196 1.0 4.0 0.00 0.49 0.49 81 1013.7
20260902184717 84 182 1.0 4.0 0.00 0.49 0.49 81 1013.7
20260902184003 83 202 1.0 4.0 0.00 0.49 0.49 81 1013.8
20260902183717 83 231 1.0 4.0 0.00 0.49 0.49 83 1013.8
20260902183218 82 229 0.0 3.0 0.00 0.49 0.49 86 1013.9
20260902182717 82 217 1.0 4.0 0.00 0.49 0.49 86 1013.9
20260902182004 80 237 1.0 5.0 0.00 0.49 0.49 86 1013.8
20260902181503 80 212 1.0 6.0 0.00 0.49 0.49 85 1013.8
20260902181003 79 183 1.0 6.0 0.00 0.49 0.49 87 1013.8
20260902180503 79 200 1.0 5.0 0.00 0.49 0.49 88 1013.8
20260902180006 78 225 1.0 5.0 0.00 0.49 0.49 88 1013.9
20260902175503 77 202 1.0 7.0 0.00 0.49 0.49 90 1013.9
20260902175003 77 212 1.0 7.0 0.00 0.49 0.49 91 1013.9
20260902174503 76 226 1.0 3.0 0.00 0.49 0.49 91 1014.1
20260902174218 76 221 1.0 3.0 0.00 0.49 0.49 91 1014.1
20260902173503 76 233 1.0 3.0 0.00 0.49 0.49 91 1014.3
20260902173003 76 220 1.0 3.0 0.00 0.49 0.49 90 1014.4
20260902172503 76 203 1.0 2.0 0.00 0.49 0.49 90 1014.4
20260902172004 76 212 1.0 3.0 0.00 0.49 0.49 89 1014.2
20260902171503 76 194 1.0 3.0 0.00 0.49 0.49 89 1014.2
20260902171003 76 116 0.0 2.0 0.00 0.49 0.49 90 1014.6
20260902170503 77 94 0.0 3.0 0.00 0.49 0.49 90 1014.9
20260902170003 77 235 1.0 5.0 0.00 0.49 0.49 89 1015.3
20260902165503 77 242 1.0 5.0 0.00 0.49 0.49 89 1015.6
20260902165003 77 241 1.0 5.0 0.00 0.49 0.49 88 1015.9
20260902164717 78 243 1.0 3.0 0.00 0.49 0.49 88 1015.9
20260902164004 78 242 1.0 3.0 0.00 0.49 0.49 89 1015.3
20260902163503 78 225 1.0 3.0 0.00 0.49 0.49 89 1014.9
20260902163003 77 203 1.0 2.0 0.00 0.49 0.49 90 1014.6
20260902162503 77 181 0.0 2.0 0.00 0.49 0.49 91 1014.4
20260902162004 77 193 1.0 4.0 0.00 0.49 0.49 90 1014.3
20260902161718 77 191 1.0 4.0 0.00 0.49 0.49 90 1014.4
20260902161003 77 204 1.0 3.0 0.00 0.49 0.49 90 1014.5
20260902160503 77 175 1.0 3.0 0.00 0.49 0.49 91 1014.5
20260902160217 77 148 1.0 3.0 0.00 0.49 0.49 91 1014.4
20260902155718 76 124 1.0 5.0 0.00 0.49 0.49 92 1014.7
20260902155003 76 194 2.0 5.0 0.00 0.49 0.49 91 1014.7
20260902154503 76 209 2.0 4.0 0.00 0.49 0.49 92 1014.8
20260902154004 75 217 1.0 6.0 0.00 0.49 0.49 93 1014.7
20260902153503 75 210 1.0 6.0 0.00 0.49 0.49 94 1014.9
20260902153003 75 215 1.0 6.0 0.00 0.49 0.49 94 1014.9
20260902152503 74 226 2.0 6.0 0.00 0.49 0.49 94 1015.1
20260902152217 74 236 2.0 6.0 0.00 0.49 0.49 94 1015.0
20260902151718 74 235 1.0 5.0 0.00 0.49 0.49 95 1015.3
20260902151003 73 218 1.0 4.0 0.00 0.49 0.49 96 1015.2
20260902150503 73 220 1.0 7.0 0.00 0.49 0.49 96 1015.2
20260902150004 72 224 1.0 7.0 0.00 0.49 0.49 96 1015.3
20260902145503 72 239 2.0 8.0 0.00 0.49 0.49 97 1015.4
20260902145003 72 260 2.0 8.0 0.00 0.49 0.49 97 1015.4
20260902144503 71 262 1.0 3.0 0.00 0.49 0.49 97 1015.4
20260902144219 71 265 1.0 3.0 0.00 0.49 0.49 97 1015.5
20260902143503 70 221 0.0 2.0 0.00 0.49 0.49 97 1015.7
20260902143003 70 222 0.0 2.0 0.00 0.49 0.49 96 1015.7
20260902142503 70 226 0.0 2.0 0.00 0.49 0.49 96 1015.8
20260902142003 69 236 0.0 2.0 0.00 0.49 0.49 96 1015.9
20260902141718 69 295 0.0 2.0 0.00 0.49 0.49 96 1016.0
20260902141003 69 24 0.0 1.0 0.00 0.49 0.49 96 1016.0
20260902140503 69 24 0.0 1.0 0.00 0.49 0.49 96 1016.1
20260902140003 69 0 0.0 0.0 0.00 0.49 0.49 97 1016.0
20260902135503 69 0 0.0 0.0 0.00 0.49 0.49 96 1016.1
20260902135003 69 24 0.0 1.0 0.00 0.49 0.49 96 1016.0
20260902134503 69 22 0.0 1.0 0.00 0.49 0.49 96 1016.0
20260902134003 68 28 0.0 2.0 0.00 0.49 0.49 96 1016.0
20260902133503 68 14 0.0 2.0 0.00 0.49 0.49 96 1015.9
20260902133218 68 342 0.0 2.0 0.01 0.49 0.49 96 1015.7
20260902132503 68 252 0.0 2.0 0.26 0.49 0.49 97 1015.7
20260902132003 67 252 0.0 1.0 0.39 0.49 0.49 96 1015.8
20260902131717 67 252 0.0 1.0 0.43 0.49 0.49 96 1015.9
20260902131003 67 254 0.0 2.0 0.47 0.49 0.49 96 1016.1
20260902130717 67 255 0.0 2.0 0.48 0.49 0.49 96 1016.1
20260902130003 67 287 0.0 2.0 0.48 0.49 0.49 95 1016.4
20260902125503 66 296 0.0 2.0 0.48 0.49 0.49 95 1016.4
20260902125003 66 356 0.0 1.0 0.48 0.49 0.49 95 1016.4
20260902124503 67 9 0.0 1.0 0.48 0.49 0.49 95 1016.2
20260902124003 67 9 0.0 1.0 0.49 0.49 0.49 95 1016.6
20260902123505 67 56 0.0 2.0 0.49 0.49 0.49 94 1016.6
20260902123003 67 9 1.0 4.0 0.44 0.44 0.44 94 1016.6
20260902122503 68 21 2.0 4.0 0.23 0.23 0.23 95 1017.2
20260902122003 68 34 2.0 6.0 0.10 0.10 0.10 95 1016.7
20260902121503 68 34 3.0 8.0 0.04 0.04 0.04 95 1016.1
20260902121003 68 35 2.0 8.0 0.02 0.03 0.02 94 1015.9
20260902120503 69 39 1.0 4.0 0.01 0.02 0.01 94 1015.5
20260902120003 70 30 1.0 4.0 0.01 0.02 0.01 94 1015.7
20260902115717 71 22 1.0 4.0 0.01 0.02 0.01 94 1015.6
20260902115003 71 274 1.0 3.0 0.01 0.02 0.01 96 1015.2
20260902114503 71 240 0.0 3.0 0.01 0.02 0.01 96 1013.7
20260902114008 71 236 1.0 3.0 0.00 0.01 0.00 96 1013.7
20260902113503 71 242 1.0 2.0 0.00 0.01 0.00 96 1013.8
20260902113003 71 239 0.0 2.0 0.00 0.01 0.00 96 1013.9
20260902112503 71 215 0.0 4.0 0.00 0.01 0.00 97 1013.9
20260902112003 71 221 0.0 4.0 0.00 0.01 0.00 97 1013.7
20260902111503 71 250 0.0 2.0 0.00 0.01 0.00 97 1013.7
20260902111003 71 251 1.0 2.0 0.00 0.01 0.00 97 1013.7
20260902110503 71 260 0.0 3.0 0.00 0.01 0.00 96 1013.7
20260902110005 71 265 0.0 3.0 0.00 0.01 0.00 96 1013.6
20260902105503 70 238 0.0 3.0 0.00 0.01 0.00 96 1013.3
20260902105003 70 195 0.0 2.0 0.00 0.01 0.00 96 1013.3
20260902104718 70 195 0.0 2.0 0.00 0.01 0.00 96 1013.2
20260902104003 70 195 0.0 1.0 0.00 0.01 0.00 97 1013.0
20260902103718 70 0 0.0 0.0 0.00 0.01 0.00 97 1013.2
20260902103003 70 0 0.0 0.0 0.00 0.01 0.00 96 1013.6
20260902102503 70 195 0.0 1.0 0.00 0.01 0.00 96 1013.6
20260902102217 70 195 0.0 1.0 0.00 0.01 0.00 96 1013.6
20260902101503 70 195 0.0 1.0 0.00 0.01 0.00 96 1013.4
20260902101003 70 195 0.0 1.0 0.00 0.01 0.00 96 1013.5
20260902100503 70 0 0.0 0.0 0.00 0.01 0.00 96 1013.3
20260902100003 70 0 0.0 0.0 0.00 0.01 0.00 96 1013.1
20260902095718 70 0 0.0 0.0 0.00 0.01 0.00 96 1013.3
20260902095217 70 0 0.0 0.0 0.00 0.01 0.00 96 1013.4
20260902094503 70 0 0.0 0.0 0.00 0.01 0.00 96 1013.6
20260902094003 70 0 0.0 0.0 0.00 0.01 0.00 96 1013.7
20260902093503 70 0 0.0 0.0 0.00 0.01 0.00 96 1013.8
20260902093217 69 0 0.0 0.0 0.00 0.01 0.00 96 1014.1
20260902092503 69 0 0.0 0.0 0.00 0.01 0.00 96 1014.2
20260902092003 69 0 0.0 0.0 0.00 0.01 0.00 96 1014.3
20260902091718 69 0 0.0 0.0 0.00 0.01 0.00 96 1014.2
20260902091003 69 0 0.0 0.0 0.00 0.01 0.00 96 1014.2
20260902090503 69 0 0.0 0.0 0.00 0.01 0.00 96 1014.3
20260902090004 69 0 0.0 0.0 0.00 0.01 0.00 96 1014.4
20260902085503 69 0 0.0 0.0 0.00 0.01 0.00 96 1014.5
20260902085003 69 0 0.0 0.0 0.00 0.01 0.00 96 1014.5
20260902084718 69 0 0.0 0.0 0.00 0.01 0.00 96 1014.4
20260902084003 69 0 0.0 0.0 0.00 0.01 0.00 96 1014.3
20260902083718 69 0 0.0 0.0 0.00 0.01 0.00 95 1014.1
20260902083003 69 0 0.0 0.0 0.00 0.01 0.00 96 1014.2
20260902082503 69 0 0.0 0.0 0.00 0.01 0.00 96 1014.6
20260902082003 69 0 0.0 0.0 0.00 0.02 0.00 96 1014.7
20260902081503 69 0 0.0 0.0 0.00 0.02 0.00 96 1014.7
20260902081003 69 0 0.0 0.0 0.00 0.02 0.00 96 1014.7
20260902080503 69 0 0.0 0.0 0.00 0.02 0.00 96 1014.7
20260902080003 69 0 0.0 0.0 0.00 0.02 0.00 96 1014.8
20260902075717 69 0 0.0 0.0 0.00 0.02 0.00 96 1014.9
20260902075003 68 0 0.0 0.0 0.00 0.04 0.00 95 1014.7
20260902074503 69 0 0.0 0.0 0.00 0.04 0.00 95 1014.9
20260902074003 69 0 0.0 0.0 0.00 0.04 0.00 96 1014.9
20260902073503 69 0 0.0 0.0 0.00 0.04 0.00 96 1014.9
20260902073003 68 0 0.0 0.0 0.00 0.04 0.00 95 1014.9